Back to catalog

STARLINK-32408

AliveCommunicationsVLEO
NORAD 62054·PAYLOAD·🇺🇸 United States

Launched Nov 21, 2024 from Cape Canaveral Space Force Station

Loading…

Next Passes (next 24 hours)

TLE

FreshSource: CelesTrak SupGP

Epoch: Sep 14, 2026, 14:54 UTC

1 62054C 24216Y   26257.62131944 -.00001373  00000+0 -49721-4 0  2573
2 62054  43.0003 269.3537 0001593 277.1801 315.2201 15.27590125    10

Track STARLINK-32408 in real time with AllMySat

Download on the App Store